Location: ??????????
(42.1626°N, 44.1160°E)
Time: 10:27:21
(UTC+00:00)

Cosmos 1610 Rocket - Pass Details

Date: 03 March 2021
Orbit: 953 x 1002 km, 82.9° (Epoch: 21 April)

Event Time Altitude Azimuth Distance (km) Brightness Sun altitude
Rises 15:51:27 0° 184° (S) 3,629 7.5 -11.1°
Reaches altitude 10° 15:53:55 10° 184° (S) 2,693 6.9 -11.5°
Maximum altitude 16:00:06 88° 98° (E) 979 4.5 -12.7°
Drops below altitude 10° 16:06:24 10° 8° (N) 2,744 6.8 -13.8°
Sets 16:08:56 0° 8° (N) 3,704 7.5 -14.3°
